Date,TemperatureHighF,TemperatureAvgF,TemperatureLowF,DewpointHighF,DewpointAvgF,DewpointLowF,HumidityHigh,HumidityAvg,HumidityLow,PressureMaxIn,PressureMinIn,WindSpeedMaxMPH,WindSpeedAvgMPH,GustSpeedMaxMPH,PrecipitationSumIn
2013-1-6,38.5,35.7,31.3,32.2,29.8,27.6,87,79,70,29.98,29.95,0,0,2,0.00
2013-1-7,59.0,47.7,27.7,40.2,34.5,25.2,90,62,39,29.96,29.69,2,0,8,0.00
2013-1-8,52.5,50.9,48.6,50.0,47.6,40.2,93,89,67,29.69,29.51,2,0,7,1.25
2013-1-9,59.9,55.2,50.4,53.0,50.7,46.8,93,85,76,29.65,29.47,2,0,10,1.49
2013-1-10,69.8,54.6,43.2,48.1,43.8,38.6,92,69,42,29.67,29.60,2,0,8,0.00
2013-1-11,78.1,64.2,41.7,60.1,53.5,37.4,87,69,48,29.65,29.44,2,0,8,0.00
2013-1-12,76.1,63.5,0.0,64.5,55.9,32.8,79,66,55,29.56,29.29,3,1,8,0.00
2013-1-13,55.4,43.6,36.0,33.3,28.6,23.4,67,56,39,29.82,29.56,3,1,10,0.00
2013-1-14,54.7,40.7,33.6,30.7,26.2,21.8,66,57,35,29.90,29.73,2,1,9,0.00
2013-1-15,41.4,36.4,32.2,32.1,29.8,23.7,88,77,61,29.89,29.73,3,1,9,0.02
2013-1-16,57.4,38.8,27.5,24.2,20.5,9.7,78,53,19,29.98,29.81,2,0,7,0.00
2013-1-17,70.3,45.3,27.7,39.0,29.8,22.4,86,60,24,30.11,29.92,2,0,7,0.00
2013-1-18,71.4,57.1,28.9,38.4,33.3,25.8,88,44,21,30.14,29.94,2,0,8,0.00
2013-1-19,73.4,53.8,40.5,49.4,41.7,34.7,87,66,36,29.95,29.77,2,0,6,0.00
2013-1-20,78.8,50.1,35.4,50.7,39.5,32.1,90,71,28,29.88,29.70,1,0,5,0.00
2013-1-21,78.3,54.7,38.8,52.4,42.4,35.3,88,67,31,29.88,29.76,2,0,6,0.00
2013-1-22,77.4,55.2,38.8,51.7,43.5,33.8,85,67,38,29.94,29.82,2,0,7,0.00
2013-1-23,82.2,60.2,45.3,57.8,50.4,41.4,90,72,42,29.96,29.82,2,0,7,0.00
2013-1-24,87.6,67.1,53.2,63.0,56.8,48.4,89,72,38,29.87,29.72,1,0,4,0.00
2013-1-25,87.6,68.0,54.0,62.8,56.9,46.4,85,69,39,29.79,29.64,2,0,5,0.00
2013-1-26,64.2,55.8,50.4,56.2,49.9,46.2,88,81,75,29.83,29.70,1,0,5,0.00
2013-1-27,80.1,73.4,62.1,64.0,62.8,56.5,83,70,54,29.71,29.57,2,1,13,0.00
2013-1-28,78.8,72.2,68.7,66.4,64.3,62.9,82,76,62,29.66,29.49,3,1,11,0.00
2013-1-29,83.3,70.1,55.0,66.5,54.7,19.9,85,61,25,29.50,29.14,3,1,11,0.00
2013-1-30,62.6,51.7,37.0,29.4,18.4,3.1,62,29,12,29.84,29.44,3,1,15,0.00
2013-1-31,75.6,59.2,28.2,31.6,20.6,9.4,85,28,10,29.92,29.79,1,0,8,0.00
2013-2-1,75.7,44.6,36.1,41.5,33.6,27.6,82,67,20,29.99,29.79,2,0,6,0.00
2013-2-2,84.6,60.6,42.1,54.9,45.5,37.9,91,61,27,29.93,29.79,1,0,4,0.00
2013-2-3,76.8,59.3,39.9,47.2,36.1,14.5,83,47,11,29.98,29.65,3,1,10,0.00
2013-2-4,82.8,64.1,52.5,60.3,54.7,47.0,91,73,41,29.65,27.28,2,0,7,0.00
2013-2-5,87.4,62.7,46.8,52.9,46.2,33.0,95,63,16,29.63,29.50,1,0,4,0.00
2013-2-6,80.1,65.4,58.8,61.3,56.9,49.7,91,75,49,29.63,29.45,3,1,8,0.06
2013-2-7,90.5,69.0,59.7,62.2,52.4,35.1,90,61,22,29.73,29.48,2,0,8,0.00
2013-2-9,69.3,67.8,65.7,65.3,64.3,63.0,91,89,86,29.93,29.90,3,2,10,0.00
2013-2-10,69.8,61.6,53.4,65.8,47.3,29.1,94,64,24,30.15,29.87,2,0,8,0.08
2013-2-11,62.6,55.2,51.1,51.1,44.8,36.0,86,69,40,30.26,30.10,4,0,10,0.12
2013-2-12,74.5,58.2,48.2,56.4,44.6,17.4,95,68,17,30.21,29.95,2,0,8,0.02
2013-2-13,69.4,49.6,36.5,39.4,33.8,24.9,85,58,24,30.30,30.16,2,0,8,0.00
2013-2-14,79.0,53.6,31.3,45.3,34.1,22.9,94,56,14,30.26,30.11,2,0,7,0.00
2013-2-15,65.1,49.6,35.8,40.7,34.9,25.0,86,59,37,30.52,30.20,3,1,9,0.00
2013-2-16,70.3,47.5,27.3,35.1,28.2,22.3,93,55,17,30.59,30.33,1,0,10,0.00
2013-2-17,73.9,47.0,34.2,51.1,34.1,28.3,83,65,23,30.34,30.09,2,0,8,0.00
2013-2-18,86.9,68.4,56.8,59.8,43.6,15.1,79,49,10,30.23,29.95,3,1,11,0.00
2013-2-19,70.2,57.9,41.0,36.8,28.2,13.8,72,35,14,30.41,30.22,4,1,12,0.00
2013-2-20,63.7,56.6,53.2,62.8,46.2,30.1,97,71,38,30.25,29.78,4,2,15,0.04
2013-2-21,79.7,67.8,47.1,65.1,40.8,10.8,97,50,10,30.00,29.70,3,1,12,0.01
2013-2-22,62.2,49.9,41.7,39.4,33.6,28.2,76,55,31,30.21,29.97,2,1,8,0.00
2013-2-23,74.5,53.4,34.9,36.0,31.6,24.6,81,48,19,30.21,30.00,2,0,8,0.00
2013-2-24,78.3,57.6,36.0,58.5,44.3,32.9,91,65,35,30.05,29.71,4,1,15,0.00
2013-2-25,65.5,56.5,45.9,58.9,34.9,13.1,94,49,14,29.98,29.68,4,2,18,0.00
2013-2-26,71.8,53.1,37.6,33.6,28.9,21.6,71,43,17,30.09,29.96,2,0,8,0.00
2013-2-27,68.2,53.4,42.3,34.7,26.7,15.2,70,38,16,30.37,29.99,3,1,9,0.00
2013-2-28,66.0,51.6,40.5,30.5,24.5,14.6,64,39,15,30.46,30.32,3,1,10,0.00
2013-3-1,74.1,50.8,27.7,32.5,22.9,7.9,86,44,10,30.43,30.25,3,0,9,0.00
2013-3-2,66.9,47.2,35.2,32.7,27.8,18.9,76,51,17,30.56,30.38,3,1,8,0.00
2013-3-3,81.0,54.9,36.7,42.0,28.3,19.3,77,44,11,30.39,30.05,3,1,8,0.00
2013-3-4,94.5,71.6,54.9,52.3,44.1,27.5,79,45,11,30.06,29.81,2,0,7,0.00
2013-3-5,70.3,56.9,38.8,54.4,23.7,1.6,70,34,10,30.50,29.88,4,2,13,0.00
2013-3-6,69.8,49.3,29.5,28.9,17.8,5.7,70,35,10,30.59,30.34,2,0,8,0.00
2013-3-7,76.5,56.1,37.9,53.5,39.7,26.9,76,57,29,30.38,30.21,4,1,10,0.00
2013-3-8,66.2,61.2,57.7,63.3,57.1,51.9,95,86,69,30.28,30.13,3,1,12,0.02
2013-3-9,74.5,67.4,62.2,69.0,62.6,58.4,92,85,74,30.16,29.76,4,2,14,0.27
2013-3-10,70.2,59.1,44.4,61.9,41.7,31.3,96,57,29,30.26,29.81,4,1,8,0.51
2013-3-11,72.1,51.0,32.2,40.1,27.2,7.5,96,51,10,30.32,30.13,2,0,7,0.00
2013-3-12,84.9,59.4,35.1,42.4,33.5,19.2,92,48,10,30.37,30.19,3,0,9,0.00
2013-3-13,81.0,62.8,43.5,39.1,34.7,30.0,67,38,16,30.57,30.37,3,1,11,0.00
2013-3-14,83.3,64.2,44.6,54.2,44.2,38.0,90,53,25,30.51,30.33,2,1,8,0.00
2013-3-18,84.6,73.3,63.5,64.0,61.1,58.4,93,69,43,29.91,29.78,2,1,4,0.00
2013-3-19,91.2,71.4,48.7,66.1,48.1,35.4,83,50,14,30.13,29.92,3,1,7,0.00
2013-3-20,86.0,67.8,53.4,63.2,49.8,35.0,95,57,23,30.38,29.97,3,1,7,0.12
2013-3-21,76.3,64.9,54.7,58.9,48.9,37.9,74,57,35,30.20,29.75,2,1,4,0.00
2013-3-22,87.1,73.6,63.0,65.1,61.1,49.3,86,68,43,29.88,29.77,2,1,4,0.00
2013-3-23,79.7,62.2,51.4,59.8,52.0,46.3,90,71,43,29.93,29.72,1,0,2,0.00
2013-3-24,63.9,53.3,41.7,55.2,23.5,17.8,89,34,20,30.30,29.84,4,1,11,0.00
2013-3-25,65.8,48.7,33.4,27.3,18.5,4.1,69,36,10,30.52,30.30,2,0,8,0.00
2013-3-26,72.7,52.2,28.6,31.1,19.2,7.2,79,34,10,30.61,30.40,2,0,8,0.00
2013-3-27,73.2,58.6,39.9,47.7,37.4,23.0,71,47,28,30.44,30.26,3,1,8,0.00
2013-3-28,79.0,64.3,55.0,59.1,54.4,47.6,84,71,49,30.33,30.23,2,1,10,0.00
2013-3-29,82.2,70.0,59.0,60.5,57.4,55.4,93,67,42,30.30,30.17,3,1,8,0.00
2013-3-30,85.8,72.8,64.9,62.8,60.6,58.2,86,67,43,30.23,30.00,2,0,6,0.00
2013-3-31,85.3,71.1,62.4,69.5,63.7,59.8,93,78,49,30.11,29.99,2,0,8,0.08
2013-4-1,90.3,73.5,56.3,65.4,60.7,54.9,96,68,37,30.19,30.01,2,0,10,0.01
2013-4-2,78.6,67.6,52.0,66.6,63.3,50.3,98,87,62,30.13,29.95,3,1,12,1.39
2013-4-3,55.4,52.2,50.2,55.1,51.2,48.2,99,96,92,30.22,29.97,2,0,8,0.33
2013-4-4,61.2,52.2,46.8,45.9,43.5,39.6,90,74,54,30.36,30.24,1,0,4,0.33
2013-4-5,77.5,57.4,37.9,49.1,43.6,36.1,97,65,30,30.40,30.18,2,0,7,0.00
2013-4-6,84.6,66.2,52.0,58.5,53.0,46.4,90,65,38,30.19,29.96,2,1,10,0.00
2013-4-7,84.7,70.9,63.3,65.2,61.1,57.0,85,72,48,30.05,29.87,4,1,12,0.00
2013-4-8,74.1,70.4,67.6,66.4,64.3,61.6,89,81,75,29.94,29.81,2,1,3,0.00
2013-4-9,87.3,75.9,70.5,69.5,67.1,65.0,87,75,51,29.84,29.71,3,2,13,0.00
2013-4-10,75.0,56.6,44.4,69.2,51.1,40.5,96,82,63,30.09,29.75,4,1,14,0.18
2013-4-11,73.2,57.0,42.4,43.4,39.3,34.9,81,55,28,30.11,29.92,2,0,9,0.00
2013-4-12,86.0,63.4,41.4,50.9,42.7,34.1,96,56,16,30.13,29.97,2,0,11,0.00
2013-4-13,65.1,57.5,39.9,54.9,48.8,37.2,90,73,59,30.09,30.05,2,0,3,0.00
2013-4-14,90.7,74.4,58.1,67.5,61.8,54.1,91,67,39,29.95,29.71,2,1,5,0.00
2013-4-15,93.4,79.4,70.7,68.0,66.3,-54.1,88,67,42,29.93,29.79,2,1,11,0.05
2013-4-16,90.7,78.8,69.1,70.4,66.4,62.9,86,67,47,30.02,29.92,3,1,18,0.00
2013-4-17,87.4,77.4,73.2,72.5,70.1,67.7,95,79,54,30.00,29.79,3,1,12,0.00
2013-4-18,75.4,63.1,50.5,72.2,52.7,36.7,94,70,44,30.24,29.77,3,1,11,0.11
2013-4-19,73.6,56.8,37.9,41.7,29.9,15.2,88,43,12,30.43,30.24,2,1,8,0.00
2013-4-20,77.2,59.4,1.2,47.2,31.1,-42.4,92,42,10,30.36,30.11,3,1,13,0.02
2013-4-21,82.8,65.7,48.9,56.4,50.0,44.7,89,60,34,30.28,30.12,2,1,8,0.00
2013-4-24,60.1,34.4,0.0,53.6,45.2,38.1,55,32,44,30.31,29.93,0,0,4,0.00
2013-4-25,70.7,61.8,54.5,47.5,43.0,40.1,60,51,34,30.07,29.91,2,0,8,0.00
2013-4-26,75.7,62.4,59.5,67.7,58.0,7.2,93,86,46,29.91,29.73,2,0,8,0.01
2013-4-27,92.7,77.2,68.7,71.7,66.7,61.5,95,72,37,29.82,29.64,2,0,10,0.05
2013-4-28,81.9,68.7,61.9,67.5,63.9,59.9,96,85,60,29.77,29.72,2,0,5,0.00
2013-4-29,88.9,72.2,66.7,68.3,63.6,61.8,90,77,41,29.66,29.53,2,0,5,0.00
2013-4-30,126.9,75.6,63.0,71.3,63.6,60.9,95,69,43,29.58,29.45,2,0,104,0.02
2013-5-1,91.6,79.6,67.6,68.3,65.6,64.0,92,65,41,29.67,29.52,2,0,9,0.00
2013-5-2,76.3,56.2,48.2,64.6,47.9,35.3,92,74,57,30.09,29.65,4,2,11,0.01
2013-5-3,73.8,56.8,40.6,36.8,28.7,12.7,75,42,11,30.09,29.80,3,1,11,0.00
2013-5-4,90.3,60.3,36.9,43.5,33.4,20.7,88,49,10,29.82,29.61,2,0,6,0.00
2013-5-5,82.6,64.9,45.9,46.2,41.8,36.1,73,45,27,29.89,29.73,2,0,6,0.00
2013-5-6,72.9,62.2,54.0,50.0,48.0,43.9,73,60,42,29.83,29.75,0,0,2,0.00
2013-5-7,91.2,71.1,46.2,56.3,49.1,43.4,94,53,21,29.82,29.66,1,0,8,0.00
2013-5-8,86.7,75.3,63.9,64.3,61.3,54.1,88,64,44,29.75,29.60,2,1,9,0.00
2013-5-9,73.2,72.8,67.6,65.9,62.8,62.5,93,71,69,30.00,29.59,3,2,10,0.04
2013-5-10,95.2,71.5,60.1,69.1,62.5,55.0,97,78,28,30.06,29.81,3,0,12,1.25
2013-5-11,84.0,70.5,59.7,65.7,57.5,49.3,99,68,35,30.17,30.01,2,0,7,0.00
2013-5-12,83.3,62.7,53.1,60.4,50.6,39.1,95,69,24,30.28,30.13,4,0,8,0.00
2013-5-13,92.1,71.5,48.4,56.5,49.9,39.2,95,54,19,30.27,30.15,2,0,8,0.00
2013-5-14,89.6,77.0,59.7,66.7,60.2,53.3,90,58,31,30.23,30.00,2,1,11,0.00
2013-5-15,89.2,75.5,65.3,72.7,68.8,63.7,99,81,54,30.10,29.82,3,1,12,0.52
2013-5-16,94.3,79.0,69.8,73.3,70.2,67.7,97,77,45,29.89,29.71,2,1,11,0.06
2013-5-17,95.9,84.4,74.8,73.8,71.7,69.0,86,68,46,29.91,29.79,2,1,9,0.00
2013-5-18,97.5,83.8,71.8,72.2,67.9,62.6,91,62,37,29.92,29.80,2,1,11,0.00
2013-5-19,95.4,82.8,72.7,72.1,69.0,65.4,85,65,45,29.86,29.72,3,1,14,0.00
2013-5-20,96.4,83.4,73.8,71.4,69.5,66.7,86,65,41,29.85,29.70,2,1,15,0.00
2013-5-21,92.7,80.0,71.1,74.4,69.6,58.4,87,71,51,29.91,29.72,3,1,8,0.00
2013-5-22,97.0,79.6,57.4,71.9,60.4,48.2,94,57,23,29.95,29.81,2,0,8,0.00
2013-5-23,89.8,81.3,0.0,72.6,71.3,70.1,89,71,54,30.05,29.88,2,0,11,0.00
2013-5-24,83.5,73.8,67.1,73.2,70.0,66.0,98,89,69,30.13,30.02,2,0,7,1.05
2013-5-25,84.6,75.0,0.0,74.3,69.0,67.4,99,82,63,30.14,30.03,3,1,13,1.18
2013-5-26,81.1,81.1,81.1,67.4,67.4,67.4,63,63,63,30.10,29.97,2,2,4,1.18
2013-5-27,81.1,81.1,81.1,67.4,67.4,67.4,63,63,63,30.02,29.84,2,2,4,1.18
2013-5-28,81.1,81.1,81.1,67.4,67.4,67.4,63,63,63,30.56,29.77,2,2,4,1.18
2013-5-29,81.1,80.8,77.5,71.3,67.8,67.4,81,65,63,29.90,28.28,3,2,11,1.18
2013-5-30,91.9,76.9,0.0,73.1,71.7,70.4,85,67,52,29.86,29.75,2,1,16,0.00
2013-5-31,93.6,84.1,77.0,75.0,72.9,71.1,86,70,53,29.88,29.75,2,1,6,0.00
2013-6-1,99.5,84.8,76.8,74.8,72.6,71.1,85,68,43,29.92,29.80,2,1,10,0.00
2013-6-2,91.6,79.0,68.2,73.8,65.5,59.3,95,66,34,30.08,29.92,2,0,10,0.11
2013-6-3,95.2,80.0,48.9,74.3,65.5,-5.2,96,65,10,30.01,29.84,97,2,97,0.00
2013-6-4,93.0,85.2,69.1,70.7,66.6,-5.4,94,57,10,29.92,29.81,98,2,98,0.00
2013-6-5,123.6,89.0,47.3,93.3,67.3,30.6,90,51,34,29.92,29.75,119,4,119,0.02
2013-6-6,87.6,87.6,87.6,66.2,66.2,66.2,49,49,49,29.96,29.79,0,0,2,0.00
2013-6-7,90.7,85.5,68.4,66.2,59.4,13.2,63,43,10,30.03,29.89,0,0,4,0.00
2013-6-8,95.2,68.0,52.2,66.1,36.7,-2.7,63,38,10,29.95,29.80,61,21,61,0.00
2013-6-9,92.1,62.9,52.2,71.8,22.0,-2.7,86,29,10,30.00,29.85,61,40,61,0.00
2013-6-10,99.3,84.8,68.7,75.4,69.1,58.0,97,64,27,30.01,29.91,2,0,8,0.00
2013-6-11,83.5,83.5,83.5,71.4,71.4,71.4,67,67,67,30.05,29.95,0,0,1,0.00
2013-6-12,83.5,80.7,0.0,72.4,71.4,71.4,76,65,67,30.07,0.00,1,0,4,0.00
2013-6-13,99.7,83.9,0.0,75.7,72.8,70.6,93,58,41,30.08,29.95,1,0,4,0.00
2013-6-14,0.0,0.0,0.0,72.6,72.6,72.6,0,0,100,30.02,29.92,0,0,0,0.00
2013-6-15,86.9,81.8,77.7,73.8,73.4,72.9,85,76,63,29.96,29.92,0,0,0,0.00
2013-6-16,101.8,87.5,74.7,75.4,70.5,64.4,92,61,33,30.03,29.91,2,0,11,0.00
2013-6-17,102.0,87.8,77.0,74.8,70.3,63.9,84,59,32,30.02,29.86,2,0,9,0.00
2013-6-18,97.3,83.3,70.2,75.5,71.9,67.4,97,71,42,30.04,29.89,1,0,7,0.21
2013-6-19,101.3,87.9,74.5,75.5,70.3,66.2,92,59,35,29.99,29.90,2,0,10,0.00
2013-6-20,101.1,87.7,75.7,73.4,68.8,62.3,87,57,30,30.07,29.95,2,0,11,0.00
2013-6-21,100.2,88.4,76.6,75.0,68.0,58.8,87,55,26,30.09,29.97,2,1,10,0.00
2013-6-22,101.7,87.9,75.7,74.0,68.1,60.0,88,56,27,30.06,29.89,2,1,11,0.00
2013-6-23,96.3,86.4,76.6,73.3,67.2,56.9,87,56,30,30.00,29.89,2,1,8,0.00
2013-6-24,102.2,87.5,76.3,74.3,69.6,63.5,87,59,29,30.05,29.90,3,1,13,0.00
2013-6-25,103.6,88.7,0.0,73.4,68.4,59.8,86,55,25,30.02,29.87,2,1,12,0.00
2013-6-26,105.1,89.5,77.4,73.4,69.1,61.4,82,55,26,29.99,29.88,2,1,8,0.00
2013-6-27,106.9,90.0,76.5,73.0,65.4,49.4,84,50,17,30.05,29.91,2,0,9,0.00
2013-6-28,111.2,92.4,74.8,74.0,66.3,56.3,84,48,18,30.02,29.82,1,0,7,0.00
2013-6-29,112.8,93.7,72.5,72.5,62.7,47.5,82,43,13,29.89,29.76,2,0,8,0.00
2013-6-30,101.3,86.0,71.2,71.8,66.0,57.1,91,54,30,29.99,29.84,2,0,10,0.02
2013-7-1,96.3,82.9,69.1,69.3,54.4,45.7,69,40,20,30.04,29.93,2,0,11,0.00
2013-7-2,99.1,79.9,-13.2,61.6,50.6,-20.5,86,44,13,30.10,29.97,2,0,8,0.00
2013-7-3,101.1,81.7,63.9,57.5,48.3,39.2,71,33,12,30.06,30.01,2,0,5,0.00
2013-7-5,103.6,95.4,80.8,70.9,56.7,50.5,72,30,18,30.00,29.84,2,1,8,0.00
2013-7-6,103.3,87.8,70.9,73.1,64.7,54.2,86,51,21,29.96,29.83,2,1,11,0.00
2013-7-7,98.6,87.2,0.0,74.2,68.6,18.8,88,56,10,30.00,29.88,24,1,24,0.05
2013-7-8,94.1,83.9,75.7,76.2,72.7,67.4,92,71,49,30.13,30.00,2,0,7,0.07
2013-7-9,103.5,92.8,-39.1,73.4,66.0,-57.4,57,42,30,30.17,30.00,3,1,7,0.18
2013-7-10,98.4,43.3,0.0,65.3,65.3,65.3,34,15,34,30.11,30.06,2,1,2,0.00
2013-7-14,0.0,0.0,0.0,65.3,65.3,65.3,0,0,100,29.94,29.89,0,0,0,0.00
2013-7-15,0.0,0.0,0.0,65.3,65.3,65.3,0,0,100,30.05,29.92,0,0,0,0.00
2013-7-16,0.0,0.0,0.0,65.3,65.3,65.3,0,0,100,30.16,30.03,0,0,0,0.00
2013-7-17,0.0,0.0,0.0,65.3,65.3,65.3,0,0,100,30.20,30.11,0,0,0,0.00
2013-7-18,95.0,83.7,0.0,78.6,70.5,65.3,99,66,41,30.19,30.01,1,0,6,2.15
2013-7-19,95.0,95.0,95.0,67.7,67.7,67.7,41,41,41,30.10,29.91,1,1,3,2.15
2013-7-20,99.9,92.9,77.9,71.9,68.7,66.2,80,47,35,30.03,29.86,4,1,11,2.15
2013-7-21,91.2,85.6,73.2,76.7,73.1,71.2,95,68,56,29.97,29.88,0,0,10,0.00
2013-7-22,90.9,90.9,90.9,73.1,73.1,73.1,56,56,56,30.00,29.90,0,0,2,0.00
2013-7-23,100.0,85.1,-34.8,73.1,66.3,-71.0,56,46,10,30.02,29.88,4,0,100,0.02
2013-7-28,86.9,85.4,83.7,72.6,71.8,70.7,69,64,59,29.95,29.91,1,0,6,0.26
2013-7-29,101.3,88.5,78.4,75.2,70.2,60.9,86,59,29,30.03,29.94,2,1,11,0.00
2013-7-30,102.7,88.3,75.6,74.6,70.4,63.4,89,59,31,30.11,29.97,2,0,11,0.00
2013-7-31,106.0,87.9,74.7,74.2,66.9,57.9,90,56,22,30.10,29.94,1,0,4,0.00
2013-8-1,106.9,91.5,75.6,73.5,68.3,58.4,79,50,21,30.05,29.91,3,0,24,0.00
2013-8-2,104.5,90.7,77.0,70.1,66.3,57.9,68,47,22,30.00,29.89,1,0,8,0.00
2013-8-3,103.5,90.2,76.6,74.9,69.2,61.1,86,54,27,30.03,29.93,2,0,8,0.00
2013-8-4,103.8,89.9,76.1,76.4,71.9,66.3,91,59,34,30.09,29.93,1,0,6,0.00
2013-8-5,105.8,90.6,75.2,74.2,68.6,60.7,87,53,25,30.06,29.88,2,0,13,0.00
2013-8-6,106.0,90.9,75.6,75.1,69.6,58.8,87,54,25,29.97,29.82,2,0,10,0.00
2013-8-7,107.8,91.7,78.1,75.6,69.6,56.3,83,53,23,29.94,29.78,2,0,9,0.00
2013-8-8,107.8,91.2,76.5,74.7,67.5,55.5,86,51,19,29.92,29.78,2,0,9,0.00
2013-8-9,106.7,89.6,74.7,74.9,64.7,47.0,92,51,17,29.99,29.87,2,0,7,0.00
2013-8-10,106.9,91.1,75.6,74.3,69.0,60.1,85,52,25,30.07,29.94,2,0,9,0.00
2013-8-11,104.0,88.9,77.2,76.7,70.9,65.2,86,59,30,30.10,29.97,2,0,11,0.00
2013-8-12,103.1,88.6,75.0,74.3,69.5,64.1,89,57,30,30.09,29.94,1,0,7,0.00
2013-8-13,107.2,91.8,77.4,74.7,67.6,58.3,85,50,21,30.05,29.89,1,0,6,0.00
2013-8-14,111.2,88.0,77.4,74.0,70.0,60.4,87,59,22,30.04,29.91,3,0,13,0.01
2013-8-15,99.3,82.2,73.2,76.9,73.4,70.5,99,78,40,30.04,29.93,2,0,8,0.22
2013-8-16,96.3,81.7,71.2,79.4,70.6,59.9,99,73,31,30.08,29.94,2,0,6,0.01
2013-8-17,98.8,83.5,68.5,69.5,64.5,55.8,96,58,28,30.07,29.94,3,0,9,0.00
2013-8-18,102.0,83.4,65.1,70.0,60.4,49.6,96,52,18,30.08,29.98,2,0,8,0.00
2013-8-19,100.2,84.1,68.5,69.1,62.5,58.0,84,52,26,30.07,29.93,2,0,10,0.00
2013-8-20,99.9,85.2,68.5,70.4,64.7,54.8,90,55,23,30.05,29.94,2,0,10,0.00
2013-8-21,102.9,85.8,72.0,75.1,69.8,65.0,92,62,30,30.10,29.97,2,0,11,0.00
2013-8-22,100.8,87.7,73.9,75.5,70.2,64.6,92,60,32,30.11,29.94,2,0,8,0.00
2013-8-23,103.3,88.7,74.3,76.0,69.0,62.3,91,57,29,30.04,29.91,2,0,11,0.00
2013-8-24,104.7,89.9,77.0,74.6,68.9,62.7,82,53,28,30.07,29.94,3,0,12,0.00
2013-8-25,99.0,87.5,73.4,74.2,70.1,65.8,90,59,35,30.10,30.02,3,1,13,0.00
2013-8-26,96.1,82.7,75.2,72.8,71.1,67.7,90,70,41,30.15,30.03,4,1,13,0.00
2013-8-27,89.8,79.8,73.9,76.3,70.7,23.2,96,76,43,30.14,30.03,11,0,11,0.01
2013-8-28,102.2,85.5,70.5,76.1,69.5,-72.6,99,64,31,30.13,30.00,3,0,12,0.00
2013-8-29,106.7,89.3,70.7,73.1,66.4,38.9,91,53,13,30.11,29.95,20,0,20,0.00
2013-8-30,108.1,90.9,74.1,70.2,64.6,58.3,79,47,20,30.04,29.88,1,0,5,0.00
2013-8-31,89.2,89.2,89.2,67.6,67.6,67.6,49,49,49,29.87,29.87,0,0,0,0.00
2013-9-1,106.2,96.8,76.8,72.8,66.6,63.2,77,39,27,29.93,29.81,2,0,8,0.00
2013-9-2,106.3,88.7,76.3,78.6,70.7,62.2,85,59,27,29.99,29.85,2,0,8,0.06
2013-9-3,107.6,87.4,71.6,75.8,69.5,60.4,96,61,22,30.02,29.89,2,0,9,0.01
2013-9-4,105.6,88.6,50.5,73.9,69.3,41.1,87,56,28,30.06,29.93,2,0,7,0.00
2013-9-5,102.4,87.0,72.3,73.1,68.3,62.3,88,58,29,30.12,29.99,2,0,8,0.00
2013-9-6,102.4,87.4,72.1,74.5,69.7,63.3,94,60,31,30.11,29.95,2,0,8,0.00
2013-9-7,102.7,84.6,72.9,77.1,70.6,63.8,93,67,30,30.05,29.91,4,0,12,0.00
2013-9-8,100.4,82.4,71.2,75.7,71.1,66.3,97,72,35,30.01,29.89,1,0,8,0.00
2013-9-9,98.8,81.1,71.6,74.3,70.6,66.3,94,73,36,30.01,29.92,2,0,11,0.00
2013-9-10,98.4,81.4,71.6,74.1,71.0,66.5,99,74,36,30.08,29.98,3,0,11,0.00
2013-9-11,98.1,84.8,74.8,75.0,69.3,60.4,94,64,33,30.12,29.99,3,0,10,0.00
2013-9-12,101.1,84.8,70.5,75.6,67.6,60.9,95,61,28,30.09,29.93,2,0,9,0.00
2013-9-13,103.3,86.4,69.3,71.6,64.1,57.5,90,52,24,29.99,29.82,3,0,10,0.00
2013-9-14,102.0,86.7,71.1,71.8,65.6,57.1,83,53,26,29.96,29.85,2,0,9,0.00
2013-9-15,96.8,84.6,72.9,74.2,69.9,65.1,93,64,38,30.04,29.94,2,0,11,0.00
2013-9-16,90.7,77.7,73.8,74.8,73.6,70.6,95,88,52,30.07,29.97,2,0,4,0.06
2013-9-17,95.7,82.6,72.3,78.9,72.4,67.6,99,75,40,30.08,29.93,2,0,8,0.01
2013-9-18,99.3,84.2,72.3,76.2,70.3,63.9,97,67,33,30.04,29.88,3,0,10,0.00
2013-9-19,96.6,82.0,76.3,78.2,74.0,71.1,98,78,46,29.97,29.83,2,0,10,0.19
2013-9-20,77.0,74.1,70.5,76.2,73.7,70.3,99,99,96,29.90,29.81,2,0,8,3.59
2013-9-21,70.7,68.8,68.2,70.3,66.7,65.5,99,93,91,29.96,29.85,116,4,116,0.00
2013-9-22,86.2,75.1,0.0,65.5,55.1,42.3,99,57,30,29.93,29.80,2,1,8,0.01
2013-9-23,86.0,86.0,86.0,51.0,51.0,51.0,30,30,30,29.87,29.76,1,1,5,0.01
2013-9-24,86.0,86.0,86.0,51.0,51.0,51.0,30,30,30,29.95,29.84,1,1,5,0.01
2013-9-25,86.0,78.2,63.0,67.6,62.6,51.0,94,63,30,29.92,29.78,1,0,5,0.01
2013-9-26,92.1,84.9,64.4,70.2,66.4,58.4,82,56,44,29.91,29.82,0,0,49,1.51
2013-9-27,94.8,81.9,75.6,77.7,74.6,67.1,93,79,44,29.93,29.83,2,0,8,0.00
2013-9-28,91.8,81.8,75.6,78.9,75.5,19.9,96,82,54,30.01,29.88,2,0,6,0.25
2013-9-29,78.4,74.0,64.6,74.4,71.4,63.7,98,92,68,30.08,29.94,0,0,3,0.25
2013-9-30,94.3,74.2,60.1,70.8,60.7,49.2,99,70,26,29.98,29.81,1,0,4,0.01
2013-10-1,98.8,77.4,63.1,74.3,67.9,59.3,99,76,41,29.94,29.84,2,0,27,0.00
2013-10-2,97.2,82.5,74.7,76.5,72.9,65.5,95,75,45,29.98,29.86,9,0,11,0.00
2013-10-3,96.4,83.6,73.9,76.9,72.0,68.2,96,70,43,29.95,29.83,2,0,11,0.00
2013-10-4,95.7,82.3,73.0,73.8,71.0,68.6,94,71,43,29.93,29.84,2,0,8,0.00
2013-10-5,95.9,76.6,62.6,75.4,63.7,41.1,97,67,40,30.10,29.89,2,0,8,0.00
2013-10-6,85.3,66.0,52.5,60.7,48.0,31.7,98,61,17,30.16,30.06,2,0,8,0.24
2013-10-7,91.9,65.6,45.5,57.4,48.1,38.2,97,62,18,30.20,30.05,0,0,4,0.00
2013-10-8,92.3,69.1,49.3,60.5,50.7,43.7,98,59,21,30.11,29.98,2,0,8,0.00
2013-10-9,89.1,72.1,54.5,64.1,57.2,50.0,95,63,34,30.07,29.96,2,0,8,0.00
2013-10-10,89.8,75.1,63.7,68.9,64.6,61.5,97,72,44,30.05,29.89,2,0,12,0.00
2013-10-11,92.8,79.3,71.4,74.8,71.6,66.9,90,79,52,29.97,29.84,2,0,8,0.01
2013-10-12,97.3,83.8,75.7,77.8,74.5,71.2,98,76,47,30.02,29.91,1,0,5,0.00
2013-10-13,75.9,71.4,66.6,74.7,71.1,66.3,99,99,93,30.16,30.06,2,0,8,1.78
2013-10-14,82.6,75.1,71.4,75.7,72.7,71.2,99,93,75,30.11,29.93,1,0,8,0.07
2013-10-15,86.5,74.4,58.5,73.6,69.3,55.5,96,85,63,30.04,29.88,1,0,6,0.00
2013-10-16,62.1,57.8,53.2,59.7,56.4,53.0,99,95,89,30.10,29.99,1,0,4,0.64
2013-10-17,80.8,62.5,48.6,57.1,51.1,46.6,99,71,31,30.15,29.98,1,0,5,0.00
2013-10-18,72.7,63.7,54.1,64.5,59.0,52.7,96,85,68,30.02,29.89,1,0,6,0.05
2013-10-19,72.9,57.8,46.0,63.9,45.3,37.5,90,67,30,30.22,30.02,2,0,8,0.00
2013-10-20,80.4,58.3,-4.5,53.9,45.9,-13.8,99,69,31,30.12,29.91,2,0,24,0.00
2013-10-21,83.1,69.5,60.1,68.3,61.3,50.7,91,76,60,30.10,29.91,2,0,6,0.00
2013-10-22,82.4,63.9,48.9,55.8,46.9,35.4,88,60,21,30.19,30.08,2,0,6,0.00
2013-10-23,90.3,63.5,44.4,57.4,47.5,36.6,99,64,18,30.85,30.08,0,0,4,0.00
2013-10-24,90.0,64.5,45.3,58.5,49.1,41.3,99,65,21,30.25,30.14,1,0,5,0.00
2013-10-25,83.3,65.8,48.6,63.3,56.7,47.8,99,75,46,30.33,30.20,3,0,9,0.00
2013-10-26,85.6,70.8,63.7,66.5,63.1,60.3,92,78,51,30.23,30.06,2,0,8,0.00
2013-10-27,78.1,68.1,63.0,67.3,64.1,61.7,99,88,63,30.13,30.02,0,0,4,0.09
2013-10-28,84.7,73.0,65.1,70.6,67.2,63.5,99,83,57,30.09,29.98,2,0,11,0.00
2013-10-29,85.3,76.4,71.1,71.9,69.3,67.2,90,79,59,30.08,29.97,2,0,11,0.00
2013-10-30,113.5,102.3,73.2,72.5,51.6,44.0,97,33,10,30.05,29.81,2,0,9,0.02
2013-10-31,113.5,88.9,50.7,77.3,45.9,32.2,99,33,10,29.92,29.75,2,0,8,0.04
2013-11-1,89.1,63.5,44.6,60.9,46.3,33.1,99,63,14,30.10,29.83,3,0,5,0.00
2013-11-2,78.3,61.3,46.9,50.6,41.2,27.9,86,53,18,30.31,30.10,2,0,7,0.00
2013-11-3,75.6,56.6,41.4,54.3,43.2,36.9,98,67,27,30.25,30.02,2,0,8,0.00
2013-11-4,66.0,62.5,59.2,64.6,59.6,53.6,98,90,76,30.08,29.97,1,0,11,0.04
2013-11-5,82.8,71.2,63.7,70.6,67.5,63.1,99,89,62,30.02,29.90,2,0,10,0.00
2013-11-6,71.6,58.6,45.3,70.1,55.9,43.1,99,91,64,30.36,29.99,2,0,8,1.05
2013-11-7,69.3,51.8,38.5,48.3,42.4,37.7,99,75,33,30.49,30.36,2,0,5,0.00
2013-11-8,68.7,56.4,47.1,49.2,44.3,37.4,92,67,34,30.40,30.17,1,0,6,0.00
2013-11-9,69.4,62.0,55.0,58.5,53.6,45.3,83,74,64,30.20,30.11,0,0,5,0.00
2013-11-10,76.3,64.1,0.0,58.6,55.0,-40.6,91,71,10,30.32,30.18,11,0,11,0.38
2013-11-11,81.0,67.7,6.3,57.3,52.1,-17.8,98,62,31,30.30,30.16,1,0,3,0.05
2013-11-12,80.2,58.3,41.4,56.2,44.9,25.4,99,64,41,30.65,30.26,3,1,10,0.00
2013-11-13,63.7,43.2,30.4,32.1,27.5,24.4,83,57,26,30.67,30.40,1,0,6,0.00
2013-11-14,67.1,48.1,29.3,49.2,36.5,27.6,98,69,28,30.40,30.05,1,0,7,0.00
2013-11-15,68.2,32.7,0.0,60.1,55.0,48.7,99,49,71,30.05,29.86,0,0,4,0.00
2013-11-16,81.3,72.2,-16.4,71.0,66.0,-24.7,93,81,63,29.92,29.75,1,0,52,0.00
2013-11-17,96.1,75.8,59.4,74.2,65.3,-22.2,96,74,10,29.98,29.78,2,0,4,0.00
2013-11-18,76.1,65.1,54.3,60.2,54.2,-0.2,94,70,10,30.12,29.97,9,0,49,0.00
2013-11-19,66.9,66.4,59.9,54.4,54.2,50.5,76,65,64,30.17,30.00,2,0,9,0.00
2013-11-20,75.9,61.9,0.0,65.5,56.2,1.4,97,72,10,30.03,29.90,2,0,27,0.00
2013-11-21,79.7,72.6,-7.1,73.1,67.8,-27.8,99,88,10,30.07,29.93,97,1,97,0.07
2013-11-22,69.1,48.6,0.0,68.8,47.2,10.1,99,92,10,30.42,30.06,24,1,4,0.39
2013-11-23,41.5,38.0,35.1,40.0,36.0,-15.7,99,94,10,30.49,30.39,2,0,7,0.08
2013-11-24,41.9,38.9,35.8,38.7,35.0,30.6,92,86,72,30.51,30.32,1,0,8,0.11
2013-11-25,40.6,38.4,35.1,39.2,36.3,34.0,96,92,87,30.36,30.10,1,0,8,0.27
2013-11-26,52.2,42.6,37.8,38.8,34.5,29.9,90,74,50,30.38,30.14,3,0,13,0.00
2013-11-27,58.8,40.1,29.7,30.8,27.0,20.3,91,63,25,30.50,30.36,2,0,6,0.00
2013-11-28,62.1,40.9,29.5,39.1,30.3,25.3,98,72,27,30.45,30.34,1,0,6,0.00
2013-11-29,69.8,48.1,28.4,50.2,41.8,27.2,98,81,45,30.52,30.35,1,0,6,0.00
2013-11-30,66.4,56.9,50.2,57.0,50.8,45.3,97,81,66,30.38,30.19,1,0,6,0.00
2013-12-1,76.1,63.1,52.2,63.2,57.8,51.1,98,84,59,30.21,29.95,1,0,4,0.00
2013-12-2,88.3,61.9,-20.2,61.5,51.3,-36.3,99,74,25,29.95,29.67,0,0,3,0.00
2013-12-3,89.1,59.3,39.9,58.4,47.5,38.9,97,71,26,29.73,29.60,2,0,3,0.00
2013-12-4,78.4,61.4,48.6,66.1,57.2,46.3,99,87,64,29.81,29.69,1,0,8,0.00
2013-12-5,62.8,43.2,31.6,62.5,37.1,25.3,99,79,64,30.13,29.79,2,1,10,0.00
2013-12-6,35.1,31.9,27.3,32.2,28.4,21.6,98,87,77,30.46,30.07,3,1,8,0.06
2013-12-7,31.3,27.9,24.6,24.0,21.7,19.0,81,77,72,30.49,30.30,2,0,4,0.00